GW1348 Weather Reports


Display with metric or nautical units.
time (UTC)temp
F
wind
direction
speed
MPH
gust
MPH
rain 1hr
in
rain 24hr
in
rain mn
in
humidity
%
barometer
mb
20260904132532 58 0 0.0 1.0 0.00 0.01 0.01 72 996.2
20260904132033 58 0 0.0 2.0 0.00 0.01 0.01 73 996.2
20260904131547 58 309 0.0 2.0 0.00 0.01 0.01 74 996.3
20260904131031 58 0 0.0 2.0 0.00 0.01 0.01 75 996.5
20260904130530 58 66 0.0 2.0 0.00 0.01 0.01 75 996.4
20260904130048 58 0 0.0 2.0 0.00 0.01 0.01 76 996.6
20260904125532 58 0 0.0 3.0 0.00 0.01 0.01 76 996.6
20260904125034 58 0 0.0 3.0 0.00 0.01 0.01 76 996.5
20260904124826 58 1 0.0 0.0 0.00 0.01 0.01 76 996.5
20260904115531 58 46 0.0 4.0 0.00 0.02 0.01 74 996.5
20260904115029 58 41 0.0 4.0 0.00 0.02 0.01 75 996.6
20260904114549 57 67 1.0 3.0 0.00 0.02 0.01 74 996.6
20260904114030 57 27 0.0 4.0 0.00 0.02 0.01 76 996.6
20260904113531 57 38 0.0 4.0 0.00 0.02 0.01 76 996.6
20260904113055 57 41 1.0 4.0 0.00 0.02 0.01 76 996.7
20260904112531 57 57 2.0 4.0 0.00 0.02 0.01 75 996.7
20260904112035 56 51 2.0 4.0 0.00 0.02 0.01 75 996.7
20260904111553 57 51 1.0 4.0 0.00 0.02 0.01 76 996.7
20260904111030 56 38 1.0 4.0 0.00 0.02 0.01 76 996.8
20260904110532 57 25 1.0 3.0 0.00 0.02 0.01 75 996.8
20260904110055 57 0 0.0 3.0 0.00 0.02 0.01 77 996.9
20260904105533 56 37 1.0 5.0 0.00 0.03 0.01 77 996.9
20260904105031 56 0 1.0 5.0 0.00 0.03 0.01 76 997.1
20260904104554 56 86 1.0 5.0 0.00 0.03 0.01 77 996.9
20260904104030 56 35 1.0 5.0 0.00 0.03 0.01 77 997.0
20260904103530 56 0 2.0 5.0 0.00 0.03 0.01 76 997.0
20260904103058 56 28 0.0 3.0 0.00 0.03 0.01 77 997.1
20260904102532 56 146 1.0 4.0 0.00 0.03 0.01 77 997.2
20260904102030 55 0 1.0 4.0 0.00 0.03 0.01 77 997.1
20260904101605 56 14 0.0 3.0 0.00 0.03 0.01 77 997.2
20260904101031 56 0 0.0 6.0 0.00 0.03 0.01 78 997.2
20260904100532 56 93 1.0 6.0 0.00 0.03 0.01 76 997.2
20260904100049 56 49 1.0 6.0 0.00 0.03 0.01 78 997.1
20260904095531 56 65 1.0 3.0 0.00 0.03 0.01 77 997.2
20260904095032 56 0 0.0 3.0 0.00 0.03 0.01 78 997.3
20260904094552 56 44 0.0 3.0 0.00 0.03 0.01 79 997.3
20260904094030 55 49 0.0 4.0 0.00 0.03 0.01 80 997.4
20260904093530 55 101 0.0 4.0 0.00 0.03 0.01 79 997.3
20260904093114 55 0 1.0 4.0 0.00 0.03 0.01 79 997.3
20260904092533 55 57 1.0 4.0 0.00 0.03 0.01 80 997.4
20260904092031 55 0 1.0 5.0 0.00 0.03 0.01 80 997.4
20260904091552 54 351 1.0 5.0 0.00 0.03 0.01 79 997.4
20260904091031 55 0 0.0 3.0 0.00 0.03 0.01 80 997.5
20260904090530 55 0 0.0 5.0 0.00 0.03 0.01 81 997.4
20260904090053 54 75 0.0 5.0 0.00 0.03 0.01 81 997.5
20260904085530 54 61 1.0 5.0 0.00 0.03 0.01 80 997.6
20260904085032 54 34 0.0 2.0 0.00 0.03 0.01 81 997.5
20260904084600 53 0 0.0 2.0 0.00 0.03 0.01 80 997.5
20260904084030 53 43 0.0 5.0 0.00 0.03 0.01 81 997.5
20260904083530 53 0 0.0 5.0 0.00 0.03 0.01 81 997.7
20260904083055 53 65 0.0 4.0 0.00 0.03 0.01 80 997.6
20260904082531 54 0 0.0 4.0 0.00 0.03 0.01 80 997.7
20260904082031 53 54 0.0 4.0 0.00 0.03 0.01 82 997.6
20260904081552 53 43 0.0 3.0 0.00 0.03 0.01 82 997.6
20260904081031 53 63 0.0 3.0 0.00 0.03 0.01 81 997.6
20260904080528 52 0 1.0 3.0 0.00 0.03 0.01 80 997.7
20260904075531 53 81 0.0 1.0 0.00 0.03 0.01 79 997.8
20260904075033 52 0 0.0 4.0 0.00 0.03 0.01 80 997.8
20260904074556 52 0 0.0 4.0 0.00 0.03 0.01 80 997.8
20260904074030 52 46 0.0 3.0 0.00 0.03 0.01 82 998.0
20260904073531 51 0 0.0 3.0 0.00 0.03 0.01 82 998.0
20260904073052 51 0 0.0 3.0 0.00 0.03 0.01 82 998.1
20260904072530 50 49 0.0 3.0 0.00 0.03 0.01 84 998.1
20260904072031 51 0 0.0 0.0 0.00 0.03 0.01 83 998.1
20260904071552 51 0 0.0 0.0 0.00 0.03 0.01 84 998.1
20260904071029 50 0 0.0 0.0 0.00 0.03 0.01 85 998.1
20260904070530 49 0 0.0 0.0 0.00 0.03 0.01 87 998.2
20260904070052 48 0 0.0 0.0 0.00 0.03 0.01 86 998.2
20260904065532 49 0 0.0 0.0 0.00 0.03 0.01 87 998.2
20260904065032 49 0 0.0 0.0 0.00 0.03 0.01 87 998.2
20260904064557 49 0 0.0 0.0 0.00 0.03 0.01 85 998.2
20260904064034 49 0 0.0 0.0 0.00 0.03 0.01 84 998.3
20260904063531 50 0 0.0 0.0 0.00 0.03 0.01 82 998.3
20260904063052 50 0 0.0 0.0 0.00 0.03 0.01 83 998.4
20260904062530 51 0 0.0 0.0 0.00 0.03 0.01 82 998.4
20260904062032 51 0 0.0 0.0 0.00 0.03 0.01 82 998.4
20260904061553 51 0 0.0 0.0 0.00 0.03 0.01 82 998.4
20260904061032 51 0 0.0 1.0 0.00 0.03 0.01 82 998.5
20260904060532 51 0 0.0 1.0 0.00 0.03 0.01 83 998.5
20260904060052 51 81 0.0 1.0 0.00 0.03 0.01 83 998.5
20260904055530 51 166 0.0 1.0 0.00 0.03 0.01 83 998.6
20260904055030 50 0 0.0 1.0 0.00 0.03 0.01 84 998.6
20260904054559 49 0 0.0 1.0 0.00 0.03 0.01 85 998.5
20260904054029 49 117 0.0 1.0 0.00 0.03 0.01 86 998.6
20260904053531 48 0 0.0 2.0 0.00 0.03 0.01 88 998.7
20260904053054 48 0 0.0 2.0 0.00 0.03 0.01 90 998.7
20260904052531 47 141 0.0 1.0 0.00 0.03 0.01 92 998.8
20260904052032 46 0 0.0 1.0 0.00 0.03 0.01 93 998.7
20260904051604 45 139 0.0 1.0 0.00 0.03 0.01 94 998.8
20260904051030 44 139 0.0 1.0 0.00 0.03 0.01 94 998.8
20260904050531 44 142 0.0 1.0 0.00 0.03 0.01 94 998.8
20260904050050 44 0 0.0 2.0 0.00 0.03 0.01 94 998.9
20260904045532 44 227 0.0 2.0 0.00 0.03 0.01 94 999.0
20260904045030 44 249 1.0 2.0 0.00 0.03 0.01 94 999.0
20260904044609 44 0 0.0 1.0 0.00 0.03 0.01 94 998.9
20260904044033 44 243 0.0 1.0 0.00 0.03 0.01 94 998.9
20260904043530 44 199 0.0 2.0 0.00 0.03 0.01 94 999.0
20260904043052 44 211 0.0 2.0 0.00 0.03 0.01 94 999.0
20260904042530 44 255 1.0 1.0 0.00 0.03 0.01 94 999.0
20260904042031 44 253 1.0 1.0 0.00 0.03 0.01 94 999.0
20260904041555 44 262 0.0 1.0 0.00 0.03 0.01 94 999.1
20260904041030 44 265 0.0 1.0 0.00 0.03 0.01 94 999.0
20260904040531 44 0 1.0 1.0 0.00 0.03 0.01 94 999.1
20260904040051 44 252 1.0 1.0 0.00 0.03 0.01 94 999.2
20260904035532 44 245 0.0 1.0 0.00 0.03 0.01 94 999.2
20260904035032 44 245 0.0 1.0 0.00 0.03 0.01 94 999.2
20260904034559 44 0 0.0 2.0 0.00 0.03 0.01 95 999.2
20260904034032 44 0 0.0 3.0 0.00 0.03 0.01 95 999.2
20260904033530 44 241 1.0 3.0 0.00 0.03 0.01 95 999.2
20260904033053 44 195 0.0 3.0 0.00 0.03 0.01 94 999.3
20260904032530 44 234 1.0 2.0 0.00 0.03 0.01 95 999.3
20260904032030 44 134 1.0 2.0 0.00 0.03 0.01 95 999.4
20260904031601 44 179 1.0 3.0 0.00 0.03 0.01 95 999.5
20260904031032 44 233 1.0 3.0 0.00 0.03 0.01 95 999.6
20260904030530 44 0 1.0 2.0 0.00 0.03 0.01 95 999.6
20260904025531 43 236 1.0 3.0 0.00 0.03 0.01 96 999.7
20260904025030 43 229 1.0 3.0 0.00 0.03 0.01 95 999.7
20260904024552 43 227 0.0 2.0 0.00 0.03 0.01 95 999.8
20260904024030 43 235 0.0 2.0 0.01 0.03 0.01 95 999.8
20260904023532 44 246 1.0 2.0 0.01 0.03 0.01 96 999.9
20260904023104 44 157 0.0 3.0 0.01 0.03 0.01 95 999.9
20260904022532 44 201 1.0 3.0 0.01 0.03 0.01 96 999.9
20260904022033 44 259 1.0 3.0 0.01 0.03 0.01 96 1000.0
20260904021602 44 179 0.0 3.0 0.01 0.03 0.01 96 999.9
20260904021036 44 214 1.0 2.0 0.01 0.03 0.01 96 1000.1
20260904020532 44 229 1.0 2.0 0.01 0.03 0.01 96 1000.2
20260904020100 44 242 1.0 2.0 0.01 0.03 0.01 95 1000.3
20260904015533 44 232 0.0 1.0 0.01 0.03 0.01 95 1000.2
20260904015031 44 0 0.0 2.0 0.01 0.03 0.01 96 1000.3
20260904014559 44 0 0.0 2.0 0.01 0.03 0.01 96 1000.5
20260904014031 44 233 1.0 2.0 0.00 0.02 0.00 96 1000.5
20260904013531 44 247 0.0 1.0 0.00 0.02 0.00 96 1000.5
20260904013051 44 0 0.0 0.0 0.00 0.02 0.00 96 1000.6
20260904012531 45 0 0.0 0.0 0.00 0.02 0.00 96 1000.7
20260904012032 45 0 0.0 0.0 0.00 0.02 0.00 96 1000.7
20260904011613 45 0 0.0 0.0 0.00 0.02 0.00 96 1000.7
20260904011028 45 0 0.0 0.0 0.00 0.02 0.00 96 1000.8
20260904010530 45 0 0.0 0.0 0.00 0.02 0.00 96 1000.8
20260904010110 45 0 0.0 0.0 0.00 0.02 0.00 96 1000.9
20260904005530 45 0 0.0 0.0 0.00 0.02 0.00 96 1000.9
20260904005030 45 0 0.0 0.0 0.00 0.02 0.00 96 1000.9
20260904004558 45 0 0.0 0.0 0.00 0.02 0.00 96 1001.1
20260904004030 45 0 0.0 0.0 0.00 0.02 0.00 96 1001.1
20260904003532 46 0 0.0 0.0 0.00 0.02 0.00 96 1001.2
20260904003051 46 0 0.0 0.0 0.00 0.02 0.00 96 1001.2
20260904002531 45 0 0.0 0.0 0.00 0.02 0.00 96 1001.2
20260904002031 45 0 0.0 0.0 0.00 0.02 0.00 96 1001.3
20260904001550 45 0 0.0 0.0 0.00 0.02 0.00 96 1001.4
20260904001031 45 0 0.0 0.0 0.00 0.02 0.00 96 1001.5
20260904000531 45 0 0.0 0.0 0.00 0.02 0.00 96 1001.6
20260904000056 45 0 0.0 0.0 0.00 0.02 0.00 96 1001.5
20260903235530 45 0 0.0 0.0 0.00 0.02 0.00 96 1001.7
20260903235028 45 0 0.0 0.0 0.00 0.02 0.00 95 1001.7
20260903234558 45 0 0.0 0.0 0.00 0.02 0.00 94 1001.8
20260903234030 46 0 0.0 0.0 0.00 0.02 0.00 95 1001.8
20260903233533 46 0 0.0 0.0 0.00 0.02 0.00 95 1001.8
20260903233053 46 0 0.0 0.0 0.00 0.02 0.00 96 1001.8
20260903232531 46 0 0.0 0.0 0.00 0.02 0.00 96 1001.8
20260903232031 46 0 0.0 0.0 0.00 0.02 0.00 96 1001.9
20260903231551 46 0 0.0 0.0 0.00 0.02 0.00 96 1001.9
20260903231030 46 0 0.0 0.0 0.00 0.02 0.00 96 1001.9
20260903230530 45 0 0.0 0.0 0.00 0.02 0.00 96 1002.1
20260903230050 45 0 0.0 0.0 0.00 0.02 0.00 96 1002.1
20260903225531 45 0 0.0 0.0 0.00 0.02 0.00 96 1002.2
20260903225030 45 0 0.0 0.0 0.00 0.02 0.00 96 1002.3
20260903224556 45 0 0.0 0.0 0.00 0.02 0.00 96 1002.2
20260903224031 45 0 0.0 0.0 0.00 0.02 0.00 96 1002.3
20260903223531 45 0 0.0 0.0 0.00 0.02 0.00 95 1002.4
20260903223053 45 0 0.0 0.0 0.00 0.02 0.00 95 1002.3
20260903222532 45 0 0.0 0.0 0.00 0.02 0.00 94 1002.4
20260903222034 45 0 0.0 2.0 0.00 0.02 0.00 94 1002.5
20260903221549 45 0 0.0 3.0 0.00 0.02 0.00 94 1002.5
20260903221031 45 141 0.0 3.0 0.00 0.02 0.00 94 1002.5
20260903220529 45 0 0.0 0.0 0.00 0.02 0.00 94 1002.6
20260903220112 45 0 0.0 0.0 0.00 0.02 0.00 94 1002.6
20260903215532 46 0 0.0 0.0 0.00 0.02 0.02 94 1002.5
20260903215031 46 0 0.0 1.0 0.00 0.02 0.02 94 1002.6
20260903214558 46 0 0.0 2.0 0.00 0.02 0.02 94 1002.7
20260903214034 46 0 0.0 3.0 0.00 0.02 0.02 94 1002.7
20260903213531 46 0 0.0 3.0 0.00 0.02 0.02 94 1002.8
20260903213059 46 149 0.0 2.0 0.00 0.02 0.02 94 1002.7
20260903212534 46 221 0.0 2.0 0.00 0.02 0.02 94 1002.8
20260903212031 46 120 0.0 3.0 0.00 0.02 0.02 94 1002.8
20260903211554 46 148 0.0 3.0 0.00 0.02 0.02 94 1002.9
20260903211030 46 157 1.0 3.0 0.00 0.02 0.02 94 1002.9
20260903210532 46 138 1.0 3.0 0.00 0.02 0.02 94 1003.0
20260903210053 46 158 0.0 4.0 0.00 0.02 0.02 93 1003.0
20260903205530 47 161 0.0 4.0 0.00 0.12 0.02 93 1003.1
20260903205033 47 181 1.0 4.0 0.00 0.12 0.02 93 1003.2
20260903204555 47 0 1.0 3.0 0.00 0.12 0.02 93 1003.1
20260903204031 47 0 0.0 1.0 0.00 0.12 0.02 93 1003.1
20260903203534 47 141 0.0 1.0 0.00 0.12 0.02 93 1003.1
20260903203113 48 0 0.0 0.0 0.00 0.12 0.02 92 1003.2
20260903202533 48 0 0.0 1.0 0.00 0.12 0.02 92 1003.2
20260903202030 48 0 0.0 1.0 0.00 0.12 0.02 92 1003.3
20260903201549 48 0 0.0 1.0 0.00 0.12 0.02 92 1003.3
20260903201030 49 0 0.0 1.0 0.00 0.12 0.02 91 1003.4
20260903200532 49 0 0.0 1.0 0.00 0.12 0.02 91 1003.3
20260903200053 49 162 0.0 2.0 0.00 0.12 0.02 91 1003.3
20260903195536 49 0 0.0 2.0 0.00 0.18 0.02 91 1003.4
20260903195030 49 119 0.0 2.0 0.00 0.18 0.02 91 1003.4
20260903194555 49 0 0.0 3.0 0.00 0.18 0.02 91 1003.4
20260903194033 49 0 0.0 3.0 0.00 0.18 0.02 92 1003.5
20260903193533 49 0 0.0 0.0 0.00 0.18 0.02 92 1003.6
20260903193102 49 0 0.0 0.0 0.00 0.18 0.02 92 1003.6
20260903192533 50 0 0.0 0.0 0.00 0.18 0.02 91 1003.6
20260903192030 50 0 0.0 3.0 0.00 0.18 0.02 91 1003.5
20260903191600 50 0 0.0 3.0 0.00 0.18 0.02 91 1003.6
20260903191030 50 0 0.0 3.0 0.00 0.18 0.02 91 1003.6
20260903190530 50 0 0.0 4.0 0.00 0.18 0.02 91 1003.8
20260903190050 50 94 0.0 4.0 0.00 0.18 0.02 91 1003.7
20260903185532 49 154 0.0 3.0 0.00 0.18 0.02 91 1003.8
20260903185031 49 0 1.0 3.0 0.00 0.18 0.02 91 1003.7
20260903184550 49 143 1.0 5.0 0.00 0.18 0.02 91 1003.7
20260903184033 49 148 1.0 5.0 0.00 0.18 0.02 91 1003.8
20260903183531 50 136 0.0 3.0 0.00 0.18 0.02 91 1003.9
20260903183059 50 0 0.0 3.0 0.00 0.18 0.02 90 1003.8
20260903182534 50 0 0.0 4.0 0.00 0.18 0.02 90 1003.7
20260903182036 50 0 1.0 4.0 0.00 0.18 0.02 89 1003.9
20260903181552 51 136 0.0 4.0 0.00 0.18 0.02 89 1003.8
20260903181034 51 121 1.0 4.0 0.00 0.18 0.02 88 1003.9
20260903180534 51 144 0.0 4.0 0.00 0.18 0.02 88 1003.9
20260903180105 51 127 1.0 4.0 0.00 0.18 0.02 88 1004.0
20260903175534 51 0 0.0 3.0 0.00 0.18 0.02 88 1004.0
20260903175030 51 197 1.0 5.0 0.00 0.18 0.02 88 1004.0
20260903174602 51 0 0.0 5.0 0.00 0.18 0.02 89 1004.0
20260903174034 51 33 0.0 4.0 0.00 0.18 0.02 89 1003.9
20260903173530 51 142 0.0 4.0 0.00 0.18 0.02 89 1003.8
20260903173059 51 273 1.0 4.0 0.00 0.18 0.02 89 1004.0
20260903172533 51 139 1.0 3.0 0.00 0.18 0.02 88 1004.0
20260903172032 52 143 0.0 3.0 0.00 0.18 0.02 88 1004.0
20260903171603 52 157 0.0 2.0 0.00 0.18 0.02 88 1003.9
20260903171036 52 340 0.0 2.0 0.00 0.18 0.02 88 1004.0
20260903170534 52 0 0.0 3.0 0.00 0.18 0.02 89 1004.1
20260903170103 52 136 0.0 3.0 0.00 0.18 0.02 89 1003.9
20260903165531 52 110 0.0 3.0 0.00 0.19 0.02 89 1004.0
20260903165033 52 0 0.0 3.0 0.00 0.19 0.02 89 1004.0
20260903164608 52 0 0.0 5.0 0.00 0.19 0.02 89 1004.0
20260903164030 52 77 0.0 5.0 0.00 0.19 0.02 89 1004.2
20260903163532 52 0 1.0 4.0 0.00 0.19 0.02 89 1004.1
20260903163102 52 0 1.0 6.0 0.00 0.19 0.02 89 1004.1
20260903162530 52 150 1.0 6.0 0.00 0.19 0.02 89 1004.2
20260903162030 52 191 1.0 4.0 0.00 0.19 0.02 89 1004.3
20260903161553 52 330 0.0 4.0 0.00 0.19 0.02 89 1004.3
20260903161030 52 160 1.0 9.0 0.00 0.19 0.02 89 1004.4
20260903160533 52 169 2.0 9.0 0.00 0.19 0.02 90 1004.2
20260903160053 52 75 0.0 6.0 0.00 0.19 0.02 90 1004.3
20260903155534 52 0 1.0 6.0 0.00 0.22 0.02 90 1004.3
20260903155030 52 344 0.0 8.0 0.00 0.22 0.02 90 1004.3
20260903154602 52 304 0.0 8.0 0.00 0.22 0.02 90 1004.3
20260903154033 53 139 1.0 5.0 0.00 0.22 0.02 89 1004.3
20260903153530 53 127 0.0 5.0 0.00 0.22 0.02 88 1004.2
20260903153058 53 146 1.0 5.0 0.00 0.22 0.02 88 1004.3
20260903152530 53 0 0.0 5.0 0.00 0.22 0.02 88 1004.3
20260903152034 53 179 1.0 8.0 0.00 0.22 0.02 88 1004.2
20260903151552 53 68 0.0 8.0 0.00 0.22 0.02 89 1004.2
20260903151030 53 48 0.0 5.0 0.00 0.22 0.02 89 1004.1
20260903150534 53 139 1.0 6.0 0.00 0.22 0.02 89 1004.2
20260903150052 53 105 2.0 6.0 0.00 0.22 0.02 89 1004.1
20260903145529 53 94 0.0 5.0 0.00 0.22 0.02 90 1004.1
20260903145032 53 0 0.0 5.0 0.00 0.22 0.02 90 1004.0
20260903144600 53 150 0.0 6.0 0.00 0.22 0.02 90 1004.1
20260903144031 52 252 0.0 6.0 0.00 0.22 0.02 90 1004.2
20260903143532 52 137 2.0 6.0 0.00 0.22 0.02 90 1004.2
20260903143050 52 360 1.0 6.0 0.00 0.22 0.02 90 1004.0
20260903142530 52 129 2.0 5.0 0.00 0.22 0.02 90 1004.0
20260903142030 52 110 1.0 5.0 0.00 0.22 0.02 91 1004.0
20260903141558 52 0 1.0 9.0 0.00 0.22 0.02 92 1003.9
20260903141034 52 104 2.0 9.0 0.00 0.22 0.02 92 1003.9
20260903140530 52 123 1.0 7.0 0.00 0.22 0.02 92 1003.9
20260903140055 52 48 2.0 7.0 0.00 0.22 0.02 92 1004.1